Regional Weather Roundup
Issued by NWS Newport/Morehead, NC

Current Version | Previous Version | Graphics & Text | Print | Product List | Glossary Off
Versions: 1 2 3 4 5 6 7 8 9 10 11 12 13 14 15 16 17 18 19 20 21 22 23 24 25 26 27 28 29 30 31 32 33 34 35 36 37 38 39 40 41 42 43 44 45 46 47 48 49 50

000
ASUS42 KMHX 061625
RWRMHX
WEATHER ROUNDUP FOR EASTERN NORTH CAROLINA
NATIONAL WEATHER SERVICE NEWPORT/MOREHEAD CITY NC
1100 AM EST TUE DEC 06 2016

NOTE: "FAIR" INDICATES FEW OR NO CLOUDS BELOW 12,000 FEET
WITH NO SIGNIFICANT WEATHER AND/OR OBSTRUCTIONS TO VISIBILITY

NCZ015>017-031-032-045>047-102-103-061700-
NORTH COAST

CITY           SKY/WX    TMP DP  RH WIND       PRES   REMARKS
EDENTON        LGT RAIN  54  52  92 E8G17     29.89F
ELIZABETH CITY LGT RAIN  53  52  96 E16       29.90F FOG
KITTY HAWK     DRIZZLE   56  56 100 E8        29.89F
MANTEO         DRIZZLE   57  56  96 E10       29.90F

$$

NCZ045>047-081-094-103-104-061700-
CENTRAL COAST

CITY           SKY/WX    TMP DP  RH WIND       PRES   REMARKS
FRISCO         RAIN      63  61  93 SE14      29.85F FOG

$$

NCZ095-097-098-100-101-061700-
SOUTHERN COAST

CITY           SKY/WX    TMP DP  RH WIND       PRES   REMARKS
BEAUFORT       RAIN      64  63  96 E17G23    29.81F VSB 1
CEDAR ISLAND   NOT AVBL
JACKSONVILLE   LGT RAIN  57  57 100 NE6       29.81F FOG
PINEY ISLAND   NOT AVBL
WILMINGTON     LGT RAIN  62  62 100 NE10      29.78F FOG


$$

NCZ011>013-027>030-043-044-078>080-089-090>093-098-061700-
COASTAL PLAIN

CITY           SKY/WX    TMP DP  RH WIND       PRES   REMARKS
AHOSKIE        RAIN      47  46  97 NE6       29.89F
CLINTON        LGT RAIN  50  50 100 CALM      29.83F
ELIZABETHTOWN  LGT RAIN  50  50 100 CALM      29.83R
GOLDSBORO      LGT RAIN  52  52 100 E9        29.80F
GREENVILLE     RAIN      52  52 100 E9        29.87F
HAVELOCK       NOT AVBL
KENANSVILLE    LGT RAIN  50  50 100 NE6       29.81F FOG
KINSTON        LGT RAIN  52  52 100 NE7       29.86F
NEW BERN       LGT RAIN  54  53  97 NE6       29.84F
RICHLANDS      LGT RAIN  53  53 100 N5        29.83F
ROCKY MOUNT    LGT RAIN  48  48 100 NE9       29.87F FOG
WASHINGTON     LGT RAIN  52  51  96 E13G20    29.83F
WHITEVILLE     LGT RAIN  52  51  97 N3        29.81F

$$

AMZ130-135-150-152-154-156-158-170-250-252-270-ANZ085-086-088-633-658-670-061700-
MARINE OBSERVATIONS

STATION/POSITION TIME  TEMP    WIND        PRES    WAVE   SWELL
                       AIR SEA DIR/SP/G            HT/PER HT/PER
                 (UTC) (F)     (DEG/KT/KT) (MB)    (FT/S) (FT/S)
CHESAPEAKE LIGHT NOT AVBL
64 E VA BEACH    1550   59 60   90/ 21/ 25 1013.1    7/ 8   5/ 8
DUCK             1600   56 54   70/ 19/ 23 1012.3
2 E DUCK         NOT AVBL
OREGON INLET     1600           80/  9/ 13   N/A
13E OREGON INLT  NOT AVBL
HATTERAS CG      1600   64 60  110/  9/ 16 1010.6
DIAMOND BUOY     1550   68 75  120/ 27/ 33 1010.1    7/ 6   2/14
CAPE LOOKOUT     1600   64     100/ 22/ 24 1008.7
BEAUFORT LAB     1600   63 55  110/ 15/ 19 1008.0
30 SE NEW RVR IN 1608   62 70   80/ 16/ 23 1006.9
30 SE NEW RVR IN NOT AVBL
27 SE WRIGHTSVLE 1608   70 69  220/ 16/ 21 1007.0
5 SE WRIGHTSVLE  1608   62 62   90/ 17/ 29 1007.2
225 S CAPE HAT   1550   73 74  180/ 16/ 17 1014.2    6/ 6   2/10
41 SE CHARLESTON 1550   74 74  220/ 21/ 27 1007.5    7/ 7

$$



USA.gov is the U.S. government's official web portal to all federal, state and local government web resources and services.